Auburn-Lewiston, ME

3:10 PM EDT on March 24, 2017 (GMT -0400)
Auburn-Lewiston Municipal

Weather History for KLEW - April, 2014

Change the Weather History Date:

Wednesday, April 9, 2014

  Actual Average Record
Temperature  
Mean Temperature 40 °F -  
Max Temperature 48 °F 48 °F 62 °F (2002)
Min Temperature 33 °F 29 °F 21 °F (1997)
Degree Days  
Heating Degree Days 24    
Moisture  
Dew Point 24 °F    
Average Humidity 50    
Maximum Humidity 81    
Minimum Humidity 27    
Precipitation  
Precipitation 0.00 in - - ()
Sea Level Pressure  
Sea Level Pressure 29.61 in    
Wind  
Wind Speed 10 mph (NW)    
Max Wind Speed 23 mph    
Max Gust Speed 36 mph    
Visibility 10 miles    
Events      
Averages and records for this station are not official NWS values.
T = Trace of Precipitation, MM = Missing Value Source: NWS Daily Summary

Daily Weather History Graph

Daily Weather History Graph

Search for Another Location

Airport or City:

Trip Planner

Search our weather history database for the weather conditions in past years. The results will help you decide how hot, cold, wet, or windy it might be!

Date:

Astronomy

Apr. 09, 2014 Rise Set
Actual Time 6:08 AM EDT 7:17 PM EDT
Civil Twilight 5:38 AM EDT 7:47 PM EDT
Nautical Twilight 5:03 AM EDT 8:23 PM EDT
Astronomical Twilight 4:25 AM EDT 9:00 PM EDT
Moon 1:52 PM EDT (4/9) 3:06 AM EDT (4/9)
Length of Visible Light 14h 08m
Length of Day
13h 09m
Waxing Gibbous, 71% of the Moon is Illuminated
Apr 9
Waxing Gibbous
Apr 15
Full
Apr 22
Last Quarter
Apr 29
New
May 6
First Quarter

Hourly Weather History & Observations

Time (EDT) Temp. Windchill Dew Point Humidity Pressure Visibility Wind Dir Wind Speed Gust Speed Precip Events Conditions
12:15 AM 42.8 °F 38.0 °F 32.0 °F 66% 29.40 in 10.0 mi NW 8.1 mph - N/A   Clear
12:35 AM 42.8 °F 37.0 °F 32.0 °F 66% 29.40 in 10.0 mi NW 10.4 mph - N/A   Clear
12:55 AM 42.8 °F 37.5 °F 30.2 °F 61% 29.41 in 10.0 mi NW 9.2 mph - N/A   Clear
1:15 AM 42.8 °F 41.1 °F 30.2 °F 61% 29.41 in 10.0 mi NNW 3.5 mph - N/A   Clear
1:35 AM 42.8 °F 40.1 °F 30.2 °F 61% 29.43 in 10.0 mi North 4.6 mph - N/A   Clear
1:55 AM 41.0 °F 36.4 °F 30.2 °F 65% 29.44 in 10.0 mi NW 6.9 mph - N/A   Partly Cloudy
2:15 AM 42.8 °F 38.0 °F 30.2 °F 61% 29.46 in 10.0 mi NNW 8.1 mph 16.1 mph N/A   Mostly Cloudy
2:35 AM 42.8 °F 38.0 °F 30.2 °F 61% 29.46 in 10.0 mi WNW 8.1 mph - N/A   Overcast
2:55 AM 42.8 °F 38.6 °F 30.2 °F 61% 29.47 in 10.0 mi NW 6.9 mph - N/A   Mostly Cloudy
3:15 AM 42.8 °F 38.6 °F 30.2 °F 61% 29.47 in 10.0 mi NW 6.9 mph - N/A   Overcast
3:35 AM 42.8 °F - 30.2 °F 61% 29.48 in 10.0 mi Calm Calm - N/A   Mostly Cloudy
3:55 AM 41.0 °F - 30.2 °F 65% 29.48 in 10.0 mi Calm Calm - N/A   Partly Cloudy
4:15 AM 39.2 °F 35.9 °F 28.4 °F 65% 29.48 in 10.0 mi West 4.6 mph - N/A   Partly Cloudy
4:35 AM 39.2 °F 37.0 °F 28.4 °F 65% 29.47 in 10.0 mi NW 3.5 mph - N/A   Scattered Clouds
4:55 AM 35.6 °F - 30.2 °F 81% 29.47 in 10.0 mi Calm Calm - N/A   Partly Cloudy
5:15 AM 35.6 °F 30.7 °F 28.4 °F 75% 29.48 in 10.0 mi West 5.8 mph - N/A   Clear
5:35 AM 37.4 °F - 30.2 °F 75% 29.49 in 10.0 mi Calm Calm - N/A   Clear
5:55 AM 35.6 °F - 30.2 °F 81% 29.50 in 10.0 mi Calm Calm - N/A   Partly Cloudy
6:15 AM 37.4 °F 34.9 °F 28.4 °F 70% 29.50 in 10.0 mi NNW 3.5 mph - N/A   Mostly Cloudy
6:35 AM 41.0 °F 35.2 °F 32.0 °F 70% 29.52 in 10.0 mi NNW 9.2 mph - N/A   Overcast
6:55 AM 41.0 °F 38.0 °F 32.0 °F 70% 29.53 in 10.0 mi WNW 4.6 mph - N/A   Overcast
7:15 AM 42.8 °F 39.3 °F 33.8 °F 70% 29.54 in 10.0 mi SW 5.8 mph - N/A   Mostly Cloudy
7:35 AM 41.0 °F - 33.8 °F 76% 29.55 in 10.0 mi Calm Calm - N/A   Mostly Cloudy
7:55 AM 44.6 °F 41.4 °F 33.8 °F 66% 29.56 in 10.0 mi West 5.8 mph - N/A   Overcast
8:15 AM 44.6 °F 40.7 °F 33.8 °F 66% 29.56 in 10.0 mi NW 6.9 mph - N/A   Overcast
8:35 AM 44.6 °F 38.4 °F 32.0 °F 61% 29.56 in 10.0 mi NW 12.7 mph - N/A   Mostly Cloudy
8:55 AM 46.4 °F 40.1 °F 32.0 °F 57% 29.56 in 10.0 mi NNW 15.0 mph 20.7 mph N/A   Partly Cloudy
9:15 AM 46.4 °F 39.0 °F 30.2 °F 53% 29.56 in 10.0 mi NNW 19.6 mph 25.3 mph N/A   Clear
9:35 AM 46.4 °F 39.2 °F 32.0 °F 57% 29.57 in 10.0 mi NW 18.4 mph 24.2 mph N/A   Partly Cloudy
9:55 AM 46.4 °F 39.8 °F 32.0 °F 57% 29.57 in 10.0 mi NW 16.1 mph 23.0 mph N/A   Partly Cloudy
10:15 AM 46.4 °F 39.2 °F 30.2 °F 53% 29.57 in 10.0 mi NNW 18.4 mph 23.0 mph N/A   Clear
10:35 AM 46.4 °F 40.7 °F 30.2 °F 53% 29.57 in 10.0 mi NNW 12.7 mph 23.0 mph N/A   Clear
10:55 AM 46.4 °F 40.4 °F 32.0 °F 57% 29.57 in 10.0 mi North 13.8 mph 18.4 mph N/A   Partly Cloudy
11:15 AM 48.2 °F - 30.2 °F 50% 29.57 in 10.0 mi NNW 16.1 mph 19.6 mph N/A   Mostly Cloudy
11:35 AM 48.2 °F - 30.2 °F 50% 29.57 in 10.0 mi NW 12.7 mph 19.6 mph N/A   Mostly Cloudy
11:55 AM 46.4 °F 40.4 °F 28.4 °F 50% 29.58 in 10.0 mi NNW 13.8 mph 24.2 mph N/A   Overcast
12:15 PM 46.4 °F 39.0 °F 28.4 °F 50% 29.58 in 10.0 mi NNW 19.6 mph 24.2 mph N/A   Overcast
12:35 PM 46.4 °F 39.5 °F 28.4 °F 50% 29.59 in 10.0 mi NNW 17.3 mph 20.7 mph N/A   Overcast
12:55 PM 44.6 °F 37.2 °F 28.4 °F 53% 29.59 in 10.0 mi NW 17.3 mph 23.0 mph N/A   Overcast
1:15 PM 44.6 °F 37.2 °F 26.6 °F 49% 29.60 in 10.0 mi NW 17.3 mph 24.2 mph N/A   Overcast
1:35 PM 44.6 °F 38.8 °F 28.4 °F 53% 29.61 in 10.0 mi NW 11.5 mph 19.6 mph N/A   Overcast
1:55 PM 44.6 °F 39.2 °F 26.6 °F 49% 29.61 in 10.0 mi NW 10.4 mph 17.3 mph N/A   Overcast
2:15 PM 46.4 °F 40.4 °F 26.6 °F 46% 29.61 in 10.0 mi NW 13.8 mph 19.6 mph N/A   Overcast
2:35 PM 48.2 °F - 24.8 °F 40% 29.61 in 10.0 mi NW 23.0 mph 31.1 mph N/A   Mostly Cloudy
2:55 PM 46.4 °F 39.0 °F 23.0 °F 40% 29.62 in 10.0 mi NW 19.6 mph - N/A   Partly Cloudy
3:15 PM 46.4 °F 39.2 °F 19.4 °F 34% 29.63 in 10.0 mi WNW 18.4 mph 25.3 mph N/A   Partly Cloudy
3:35 PM 46.4 °F 38.3 °F 17.6 °F 32% 29.63 in 10.0 mi NW 23.0 mph 27.6 mph N/A   Clear
3:55 PM 46.4 °F 38.3 °F 15.8 °F 29% 29.63 in 10.0 mi NW 23.0 mph 35.7 mph N/A   Clear
4:15 PM 46.4 °F 41.1 °F 15.8 °F 29% 29.64 in 10.0 mi NW 11.5 mph 24.2 mph N/A   Clear
4:35 PM 46.4 °F 39.5 °F 15.8 °F 29% 29.65 in 10.0 mi NW 17.3 mph - N/A   Clear
4:55 PM 46.4 °F 39.2 °F 15.8 °F 29% 29.65 in 10.0 mi NW 18.4 mph 23.0 mph N/A   Clear
5:15 PM 46.4 °F 39.2 °F 15.8 °F 29% 29.66 in 10.0 mi NW 18.4 mph 28.8 mph N/A   Clear
5:35 PM 44.6 °F 38.1 °F 12.2 °F 27% 29.67 in 10.0 mi WNW 13.8 mph 27.6 mph N/A   Clear
5:55 PM 44.6 °F 37.4 °F 12.2 °F 27% 29.68 in 10.0 mi NW 16.1 mph 27.6 mph N/A   Clear
6:15 PM 44.6 °F 38.1 °F 12.2 °F 27% 29.69 in 10.0 mi NNW 13.8 mph 25.3 mph N/A   Clear
6:35 PM 42.8 °F 35.8 °F 12.2 °F 29% 29.70 in 10.0 mi NNW 13.8 mph 23.0 mph N/A   Clear
6:55 PM 42.8 °F 35.1 °F 12.2 °F 29% 29.71 in 10.0 mi NW 16.1 mph 27.6 mph N/A   Clear
7:15 PM 41.0 °F 33.1 °F 12.2 °F 31% 29.73 in 10.0 mi NW 15.0 mph 27.6 mph N/A   Clear
7:35 PM 39.2 °F 30.5 °F 12.2 °F 33% 29.75 in 10.0 mi NNW 16.1 mph 21.9 mph N/A   Clear
7:55 PM 39.2 °F 29.6 °F 12.2 °F 33% 29.77 in 10.0 mi NNW 19.6 mph 27.6 mph N/A   Clear
8:15 PM 37.4 °F 29.3 °F 12.2 °F 36% 29.78 in 10.0 mi NW 12.7 mph 26.5 mph N/A   Clear
8:35 PM 37.4 °F 30.3 °F 12.2 °F 36% 29.80 in 10.0 mi NNW 10.4 mph 18.4 mph N/A   Clear
8:55 PM 37.4 °F 30.3 °F 12.2 °F 36% 29.82 in 10.0 mi NW 10.4 mph - N/A   Clear
9:15 PM 37.4 °F 28.9 °F 12.2 °F 36% 29.83 in 10.0 mi NW 13.8 mph 18.4 mph N/A   Clear
9:35 PM 35.6 °F 27.5 °F 12.2 °F 38% 29.84 in 10.0 mi NW 11.5 mph 17.3 mph N/A   Clear
9:55 PM 35.6 °F 28.0 °F 12.2 °F 38% 29.85 in 10.0 mi WNW 10.4 mph - N/A   Clear
10:15 PM 35.6 °F 28.0 °F 12.2 °F 38% 29.85 in 10.0 mi WNW 10.4 mph 19.6 mph N/A   Clear
10:35 PM 35.6 °F 29.2 °F 12.2 °F 38% 29.86 in 10.0 mi WNW 8.1 mph - N/A   Clear
10:55 PM 35.6 °F 30.7 °F 12.2 °F 38% 29.88 in 10.0 mi West 5.8 mph - N/A   Clear
11:15 PM 35.6 °F 29.9 °F 12.2 °F 38% 29.89 in 10.0 mi WNW 6.9 mph - N/A   Clear
11:35 PM 33.8 °F 27.7 °F 12.2 °F 41% 29.89 in 10.0 mi WNW 6.9 mph - N/A   Clear
11:55 PM 33.8 °F 28.6 °F 12.2 °F 41% 29.90 in 10.0 mi WNW 5.8 mph - N/A   Clear